CW9192 Weather Reports


time (UTC)temp
C
wind
direction
speed
KPH
gust
KPH
rain 1hr
cm
rain 24hr
cm
rain mn
cm
humidity
%
barometer
mb
20260503050558 1 316 3.2 16.1 0.00 0.00 0.00 80 1011.7
20260503050058 1 341 6.4 16.1 0.00 0.00 0.00 79 1011.8
20260503045559 1 348 4.8 16.1 0.00 0.00 0.00 79 1011.8
20260503045058 1 306 6.4 16.1 0.00 0.00 0.00 79 1011.8
20260503044559 1 255 6.4 14.5 0.00 0.00 0.00 79 1011.9
20260503044058 1 12 4.8 14.5 0.00 0.00 0.00 79 1011.9
20260503043601 1 279 4.8 9.7 0.00 0.00 0.00 79 1011.9
20260503043057 1 0 1.6 14.5 0.00 0.00 0.00 79 1011.9
20260503042602 1 244 4.8 14.5 0.00 0.00 0.00 79 1011.9
20260503042058 1 304 6.4 14.5 0.00 0.00 0.00 79 1012.0
20260503041556 1 304 4.8 14.5 0.00 0.00 0.00 79 1012.0
20260503041057 1 244 6.4 14.5 0.00 0.00 0.00 79 1012.1
20260503040558 1 290 4.8 12.9 0.00 0.00 0.00 80 1012.1
20260503040057 1 0 1.6 14.5 0.00 0.00 0.00 80 1012.1
20260503035600 1 17 1.6 16.1 0.00 0.00 0.00 80 1012.0
20260503035059 1 242 6.4 17.7 0.00 0.00 0.00 80 1012.1
20260503034558 1 340 4.8 17.7 0.00 0.00 0.00 79 1012.1
20260503034100 1 325 3.2 8.0 0.00 0.00 0.00 80 1012.1
20260503033558 1 360 1.6 9.7 0.00 0.00 0.00 80 1012.0
20260503033057 1 242 3.2 14.5 0.00 0.00 0.00 80 1012.1
20260503032602 1 296 4.8 14.5 0.00 0.00 0.00 80 1012.1
20260503032058 1 316 3.2 11.3 0.00 0.00 0.00 80 1012.1
20260503031557 1 276 3.2 9.7 0.00 0.00 0.00 80 1012.1
20260503031058 1 254 1.6 9.7 0.00 0.00 0.00 80 1012.2
20260503030559 1 281 1.6 9.7 0.00 0.00 0.00 80 1012.2
20260503030131 1 250 3.2 14.5 0.00 0.00 0.00 80 1012.2
20260503025558 1 273 3.2 14.5 0.00 0.00 0.00 79 1012.2
20260503025101 1 282 3.2 17.7 0.00 0.00 0.00 79 1012.2
20260503024558 1 239 4.8 17.7 0.00 0.00 0.00 79 1012.1
20260503024058 1 0 1.6 17.7 0.00 0.00 0.00 79 1012.2
20260503023557 1 298 6.4 17.7 0.00 0.00 0.00 78 1012.2
20260503023106 1 259 3.2 14.5 0.00 0.00 0.00 78 1012.3
20260503022558 1 276 1.6 14.5 0.00 0.00 0.00 78 1012.2
20260503022102 1 242 4.8 14.5 0.00 0.00 0.00 78 1012.2
20260503021602 1 352 4.8 12.9 0.00 0.00 0.00 78 1012.3
20260503021058 1 294 3.2 14.5 0.00 0.00 0.00 77 1012.4
20260503020558 1 74 6.4 14.5 0.00 0.00 0.00 77 1012.2
20260503020059 1 309 1.6 9.7 0.00 0.00 0.00 77 1012.3
20260503015558 1 313 1.6 6.4 0.00 0.00 0.00 77 1012.4
20260503015058 1 290 3.2 8.0 0.00 0.00 0.00 77 1012.4
20260503014558 1 300 3.2 8.0 0.00 0.00 0.00 77 1012.5
20260503014058 1 13 3.2 12.9 0.00 0.00 0.00 77 1012.5
20260503013601 1 252 0.0 12.9 0.00 0.00 0.00 76 1012.5
20260503013100 1 249 3.2 12.9 0.00 0.00 0.00 76 1012.5
20260503012559 2 223 3.2 17.7 0.00 0.00 0.00 76 1012.5
20260503012055 2 279 3.2 17.7 0.00 0.00 0.00 75 1012.7
20260503011622 2 273 4.8 17.7 0.00 0.00 0.00 75 1012.6
20260503011058 2 352 4.8 17.7 0.00 0.00 0.00 74 1012.6
20260503010558 2 264 1.6 11.3 0.00 0.00 0.00 75 1012.6
20260503010059 2 149 1.6 14.5 0.00 0.00 0.00 74 1012.5
20260503005602 2 286 3.2 14.5 0.00 0.00 0.00 73 1012.5
20260503005059 2 330 3.2 14.5 0.00 0.00 0.00 73 1012.6
20260503004557 2 318 1.6 14.5 0.00 0.00 0.00 73 1012.5
20260503004058 2 268 4.8 16.1 0.00 0.00 0.00 72 1012.5
20260503003558 2 9 3.2 16.1 0.00 0.00 0.00 72 1012.4
20260503003057 3 306 3.2 12.9 0.00 0.00 0.00 71 1012.4
20260503002558 3 259 1.6 12.9 0.00 0.00 0.00 72 1012.4
20260503002103 3 352 3.2 12.9 0.00 0.00 0.00 71 1012.2
20260503001558 3 273 6.4 12.9 0.00 0.00 0.00 70 1012.1
20260503001058 3 339 4.8 14.5 0.00 0.00 0.00 70 1012.2
20260503000558 3 19 4.8 14.5 0.00 0.00 0.00 68 1012.1
20260503000110 3 5 4.8 14.5 0.00 0.00 0.00 68 1012.1
20260502235600 3 312 3.2 20.9 0.00 0.00 0.00 67 1012.1
20260502235058 3 267 3.2 20.9 0.00 0.00 0.00 66 1012.0
20260502234603 3 331 8.0 20.9 0.00 0.00 0.00 65 1012.0
20260502234059 3 40 4.8 14.5 0.00 0.00 0.00 65 1012.0
20260502233559 3 313 4.8 17.7 0.00 0.00 0.00 64 1012.0
20260502233056 3 312 8.0 17.7 0.00 0.00 0.00 62 1011.9
20260502232558 3 292 4.8 14.5 0.00 0.00 0.00 59 1011.8
20260502232100 3 267 4.8 17.7 0.00 0.00 0.00 57 1011.8
20260502231559 3 263 4.8 17.7 0.00 0.00 0.00 55 1011.8
20260502231104 3 218 6.4 17.7 0.00 0.00 0.00 54 1011.7
20260502230558 4 265 3.2 9.7 0.00 0.00 0.00 56 1011.6
20260502230056 4 262 1.6 9.7 0.00 0.00 0.00 55 1011.6
20260502225559 4 257 3.2 9.7 0.00 0.00 0.00 54 1011.6
20260502225058 4 317 1.6 11.3 0.00 0.00 0.00 55 1011.6
20260502224558 4 258 3.2 11.3 0.00 0.00 0.00 55 1011.6
20260502224100 4 287 3.2 11.3 0.00 0.00 0.00 54 1011.5
20260502223558 4 281 4.8 11.3 0.00 0.00 0.00 52 1011.5
20260502223057 3 241 3.2 12.9 0.00 0.00 0.00 51 1011.5
20260502222558 3 198 4.8 12.9 0.00 0.00 0.00 52 1011.5
20260502222058 3 268 3.2 16.1 0.00 0.00 0.00 54 1011.5
20260502221609 4 264 4.8 16.1 0.00 0.00 0.00 53 1011.5
20260502221058 4 248 3.2 16.1 0.00 0.00 0.00 53 1011.5
20260502220558 4 234 3.2 12.9 0.00 0.00 0.00 53 1011.6
20260502220109 4 0 4.8 12.9 0.00 0.00 0.00 53 1011.6
20260502215558 4 202 3.2 12.9 0.00 0.00 0.00 54 1011.5
20260502215058 4 233 4.8 12.9 0.00 0.00 0.00 55 1011.6
20260502214603 4 279 3.2 12.9 0.00 0.00 0.00 55 1011.6
20260502214058 4 148 4.8 12.9 0.00 0.00 0.00 55 1011.6
20260502213559 4 238 4.8 12.9 0.00 0.00 0.00 53 1011.6
20260502213059 4 286 6.4 14.5 0.00 0.00 0.00 53 1011.7
20260502212558 4 271 4.8 14.5 0.00 0.00 0.00 56 1011.6
20260502212059 4 284 3.2 14.5 0.00 0.00 0.00 57 1011.6
20260502211556 4 313 6.4 14.5 0.00 0.00 0.00 55 1011.6
20260502211059 4 295 4.8 12.9 0.00 0.00 0.00 55 1011.6
20260502210558 4 306 3.2 9.7 0.00 0.00 0.00 55 1011.6
20260502210120 5 13 4.8 19.3 0.00 0.00 0.00 57 1011.6
20260502205603 4 270 4.8 19.3 0.00 0.00 0.00 55 1011.5
20260502205058 4 292 9.7 19.3 0.00 0.00 0.00 57 1011.6
20260502204558 5 319 4.8 12.9 0.00 0.00 0.00 57 1011.6
20260502204058 5 289 6.4 14.5 0.00 0.00 0.00 57 1011.6
20260502203558 5 360 4.8 14.5 0.00 0.00 0.00 57 1011.6
20260502203058 5 342 6.4 20.9 0.00 0.00 0.00 58 1011.6
20260502202557 5 327 6.4 22.5 0.00 0.00 0.00 57 1011.6
20260502202101 5 321 11.3 22.5 0.00 0.00 0.00 57 1011.8
20260502201557 5 304 11.3 22.5 0.00 0.00 0.00 58 1011.9
20260502201057 4 338 8.0 14.5 0.00 0.00 0.00 62 1011.8
20260502200558 3 220 6.4 14.5 0.00 0.00 0.00 65 1012.0
20260502200122 3 238 4.8 24.1 0.00 0.00 0.00 65 1012.1
20260502195559 3 340 3.2 27.4 0.00 0.00 0.00 65 1012.1
20260502195058 3 209 9.7 27.4 0.00 0.00 0.00 66 1012.2
20260502194603 3 306 3.2 16.1 0.00 0.00 0.00 71 1012.3
20260502194058 3 233 4.8 16.1 0.00 0.00 0.00 70 1012.2
20260502193558 3 323 3.2 14.5 0.00 0.00 0.00 71 1012.2
20260502193055 3 284 4.8 12.9 0.00 0.00 0.00 73 1012.2
20260502192558 3 249 4.8 12.9 0.00 0.00 0.00 75 1012.2
20260502192059 2 243 3.2 12.9 0.00 0.00 0.00 74 1012.2
20260502191604 2 319 4.8 14.5 0.00 0.00 0.00 73 1012.3
20260502191100 2 257 4.8 17.7 0.00 0.00 0.00 73 1012.4
20260502190601 2 291 4.8 19.3 0.00 0.00 0.00 73 1012.4
20260502190059 3 360 6.4 19.3 0.00 0.00 0.00 73 1012.4
20260502185557 3 318 4.8 17.7 0.00 0.00 0.00 73 1012.4
20260502185057 3 286 8.0 17.7 0.00 0.00 0.00 72 1012.2
20260502184557 3 274 3.2 16.1 0.00 0.00 0.00 73 1012.2
20260502184057 4 300 4.8 17.7 0.00 0.00 0.00 75 1012.1
20260502183558 3 279 6.4 17.7 0.00 0.00 0.00 75 1012.1
20260502183056 3 304 4.8 17.7 0.00 0.00 0.00 76 1012.1
20260502182559 3 301 3.2 17.7 0.00 0.00 0.00 79 1012.2
20260502182057 3 352 4.8 12.9 0.00 0.00 0.00 79 1012.2
20260502181557 2 247 1.6 9.7 0.00 0.00 0.00 80 1012.2
20260502181058 2 0 1.6 11.3 0.00 0.00 0.00 80 1012.2
20260502180558 2 0 3.2 11.3 0.00 0.00 0.00 81 1012.2
20260502170108 1 235 1.6 8.0 0.00 0.00 0.00 86 1012.0
20260502164103 1 257 3.2 17.7 0.00 0.00 0.00 87 1012.1
20260502163559 1 311 4.8 14.5 0.00 0.00 0.00 88 1012.1
20260502163100 1 274 3.2 12.9 0.00 0.00 0.00 88 1012.2
20260502162600 1 5 3.2 9.7 0.00 0.00 0.00 88 1012.2
20260502162059 1 297 3.2 14.5 0.00 0.00 0.00 88 1012.2
20260502161606 1 274 1.6 14.5 0.00 0.00 0.00 88 1012.2
20260502161059 1 273 3.2 11.3 0.00 0.00 0.00 88 1012.2
20260502160559 1 250 1.6 14.5 0.00 0.00 0.00 88 1012.1
20260502152100 0 284 0.0 11.3 0.00 0.00 0.00 87 1012.4
20260502151612 0 275 1.6 11.3 0.00 0.00 0.00 86 1012.4
20260502151059 1 300 6.4 22.5 0.00 0.00 0.00 85 1012.4
20260502150600 1 156 6.4 22.5 0.00 0.00 0.00 84 1012.4
20260502130600 2 239 3.2 16.1 0.00 0.00 0.00 83 1012.2
20260502130107 2 213 3.2 16.1 0.00 0.00 0.00 84 1012.2
20260502123559 2 225 3.2 12.9 0.00 0.00 0.00 84 1012.2
20260502123100 2 282 4.8 14.5 0.00 0.00 0.00 84 1012.1
20260502122602 2 262 6.4 14.5 0.00 0.00 0.00 84 1012.0
20260502122059 2 259 3.2 12.9 0.00 0.00 0.00 85 1012.0
20260502121558 2 290 1.6 11.3 0.00 0.00 0.00 85 1011.9
20260502121059 2 234 4.8 11.3 0.00 0.00 0.00 85 1011.9
20260502120559 2 290 3.2 9.7 0.00 0.00 0.00 86 1011.9
20260502120104 3 212 1.6 6.4 0.00 0.00 0.00 87 1011.9
20260502115602 2 314 1.6 8.0 0.00 0.00 0.00 88 1011.8
20260502115059 2 269 1.6 8.0 0.00 0.00 0.00 88 1011.8
20260502114557 2 223 3.2 8.0 0.00 0.00 0.00 88 1011.8
20260502114102 2 263 1.6 6.4 0.00 0.00 0.00 88 1011.8
20260502113600 2 0 1.6 6.4 0.00 0.00 0.00 88 1011.7
20260502113058 2 0 0.0 3.2 0.00 0.00 0.00 89 1011.8
20260502112559 2 263 1.6 4.8 0.00 0.00 0.00 89 1011.7
20260502112059 2 0 0.0 4.8 0.00 0.00 0.00 90 1011.8
20260502111557 2 222 0.0 4.8 0.00 0.00 0.00 89 1011.9
20260502111059 1 0 0.0 3.2 0.00 0.00 0.00 89 1011.9
20260502110600 2 278 0.0 6.4 0.00 0.00 0.00 90 1012.0
20260502110103 1 0 1.6 6.4 0.00 0.00 0.00 89 1012.0
20260502105559 1 276 3.2 6.4 0.00 0.00 0.00 90 1011.9
20260502105059 1 261 1.6 6.4 0.00 0.00 0.00 90 1011.8
20260502104600 1 0 0.0 4.8 0.00 0.00 0.00 90 1011.8
20260502104059 1 0 0.0 4.8 0.00 0.00 0.00 90 1011.7
20260502103600 1 282 1.6 4.8 0.00 0.00 0.00 90 1011.6
20260502103107 1 279 1.6 4.8 0.00 0.00 0.00 90 1011.6
20260502102602 1 259 1.6 6.4 0.00 0.00 0.00 90 1011.6
20260502102058 1 0 1.6 6.4 0.00 0.00 0.00 90 1011.5
20260502101615 1 245 1.6 6.4 0.00 0.00 0.00 89 1011.5
20260502101100 1 245 3.2 9.7 0.00 0.00 0.00 90 1011.5
20260502100558 1 285 3.2 9.7 0.00 0.00 0.00 90 1011.5
20260502100104 1 219 1.6 4.8 0.00 0.00 0.00 90 1011.4
20260502091058 1 217 1.6 6.4 0.00 0.00 0.00 89 1011.4
20260502090559 1 230 1.6 6.4 0.00 0.00 0.00 89 1011.3
20260502090115 1 0 1.6 6.4 0.00 0.00 0.00 89 1011.2
20260502080105 1 360 1.6 6.4 0.00 0.00 0.00 89 1010.4
20260502071058 1 281 1.6 6.4 0.00 0.00 0.00 89 1011.0
20260502070559 1 287 0.0 4.8 0.00 0.00 0.00 89 1011.0
20260502070113 1 285 1.6 4.8 0.00 0.00 0.00 89 1011.0
20260502065557 1 276 1.6 4.8 0.00 0.00 0.00 89 1011.0
20260502065059 1 287 1.6 4.8 0.00 0.00 0.00 89 1010.9
20260502064623 1 282 0.0 3.2 0.00 0.00 0.00 89 1011.0
20260502064059 1 281 0.0 0.0 0.00 0.00 0.00 89 1011.1
20260502063559 1 0 0.0 3.2 0.00 0.00 0.00 89 1011.1
20260502063101 1 0 0.0 4.8 0.00 0.00 0.00 89 1011.1
20260502062559 1 0 1.6 4.8 0.00 0.00 0.00 89 1011.1
20260502062058 1 248 1.6 4.8 0.00 0.00 0.00 89 1011.2
20260502061601 1 252 1.6 4.8 0.00 0.00 0.00 89 1011.1
20260502061059 1 250 1.6 6.4 0.00 0.00 0.00 88 1011.1
20260502060558 1 273 1.6 6.4 0.00 0.00 0.00 88 1011.2
20260502060059 1 272 3.2 4.8 0.00 0.00 0.00 88 1011.3
20260502055558 2 276 0.0 4.8 0.00 0.00 0.00 89 1011.2
20260502055059 1 293 0.0 4.8 0.00 0.00 0.00 88 1011.3
20260502054612 2 283 0.0 9.7 0.00 0.00 0.00 88 1011.3
20260502054101 2 286 3.2 9.7 0.00 0.00 0.00 88 1011.4
20260502053559 2 275 1.6 4.8 0.00 0.00 0.00 88 1011.3
20260502053057 2 213 1.6 4.8 0.00 0.00 0.00 88 1011.3
20260502052559 2 0 0.0 1.6 0.00 0.00 0.00 88 1011.4
20260502052102 2 0 0.0 0.0 0.00 0.00 0.00 88 1011.3
20260502051559 2 0 0.0 0.0 0.00 0.00 0.00 88 1011.3
20260502051059 2 0 0.0 0.0 0.00 0.00 0.00 88 1011.3